This demonstration page uses our WeatherBlox Daily Observations layout. Learn more.

Left ArrowRight Arrow

Hourly Observations for October 3, 2016

Temp ( °F °C ) Dew Point ( °F °C ) Humidity (%) Winds ( mph kmh ) Pressure ( in mb ) Visibility ( mi km ) Precip ( " mm )
12:15 am 00:15 Cloudy 64 18 64 18 100 100 N 3 6 30.03 1017 10 16 N/A
12:35 am 00:35 Partly Cloudy 63 17 63 17 100 100 N N/A 30.03 1017 10 16 N/A
12:55 am 00:55 Clear 63 17 63 17 100 100 N N/A 30.03 1017 10 16 N/A
1:15 am 01:15 Partly Cloudy 63 17 63 17 100 100 N N/A 30.03 1017 10 16 N/A
1:35 am 01:35 Mostly Cloudy with Mist and Fog 63 17 63 17 100 100 N N/A 30.03 1017 5 8 N/A
1:55 am 01:55 Partly Cloudy 61 16 61 16 100 100 N N/A 30.03 1017 7 11 N/A
2:15 am 02:15 Partly Cloudy 61 16 61 16 100 100 N N/A 30.03 1017 7 11 N/A
2:35 am 02:35 Partly Cloudy 61 16 61 16 100 100 N N/A 30.03 1017 10 16 N/A
2:55 am 02:55 Partly Cloudy 61 16 61 16 100 100 N N/A 30.03 1017 10 16 N/A
3:15 am 03:15 Clear 61 16 61 16 100 100 N N/A 30.03 1017 10 16 N/A
3:35 am 03:35 Partly Cloudy 61 16 61 16 100 100 SSW 5 7 30.03 1017 10 16 N/A
3:55 am 03:55 Partly Cloudy with Mist and Fog 59 15 59 15 100 100 N N/A 30.03 1017 5 8 N/A
4:15 am 04:15 Partly Cloudy with Mist and Fog 59 15 59 15 100 100 N N/A 30.03 1017 5 8 N/A
4:35 am 04:35 Cloudy with Mist and Fog 59 15 59 15 100 100 N N/A 30.03 1017 5 8 N/A
4:55 am 04:55 Partly Cloudy 59 15 59 15 100 100 N N/A 30.03 1017 10 16 N/A
5:15 am 05:15 Partly Cloudy 59 15 59 15 100 100 N N/A 30.03 1017 7 11 N/A
5:35 am 05:35 Cloudy 59 15 59 15 100 100 N N/A 30.03 1017 10 16 N/A
5:55 am 05:55 Cloudy 61 16 61 16 100 100 N N/A 30.03 1017 10 16 N/A
6:15 am 06:15 Cloudy 59 15 59 15 100 100 N N/A 30.03 1017 10 16 N/A
6:35 am 06:35 Cloudy 61 16 61 16 100 100 N N/A 30.03 1017 10 16 N/A
6:55 am 06:55 Cloudy 59 15 59 15 100 100 N N/A 30.06 1018 10 16 N/A
7:15 am 07:15 Cloudy 61 16 61 16 100 100 S 3 6 30.06 1018 10 16 N/A
7:35 am 07:35 Cloudy 61 16 61 16 100 100 SSW 3 6 30.06 1018 10 16 N/A
7:55 am 07:55 Cloudy 61 16 61 16 100 100 W 3 6 30.06 1018 10 16 N/A
8:15 am 08:15 Cloudy 63 17 63 17 100 100 NW 5 7 30.06 1018 10 16 N/A
8:35 am 08:35 Cloudy 64 18 63 17 94 94 NNW 8 13 30.06 1018 10 16 N/A
8:55 am 08:55 Mostly Cloudy 66 19 63 17 88 88 NNW 6 9 30.06 1018 10 16 N/A
9:15 am 09:15 Partly Cloudy 68 20 61 16 78 78 NNW 9 15 30.06 1018 10 16 N/A
9:35 am 09:35 Partly Cloudy 68 20 61 16 78 78 NNW 10 17 30.06 1018 10 16 N/A
9:55 am 09:55 Mostly Cloudy 70 21 61 16 73 73 NNW 14 22 30.06 1018 10 16 N/A
10:15 am 10:15 Partly Cloudy 70 21 61 16 73 73 NW 9 15 30.06 1018 10 16 N/A
10:35 am 10:35 Sunny 70 21 61 16 73 73 NNW 6 9 30.09 1019 10 16 N/A
10:55 am 10:55 Partly Cloudy 72 22 57 14 61 61 NNW 12 19 30.09 1019 10 16 N/A
11:15 am 11:15 Partly Cloudy 72 22 59 15 65 65 NNW 8 13 30.09 1019 10 16 N/A
11:35 am 11:35 Partly Cloudy 72 22 57 14 61 61 NNW 8 13 30.09 1019 10 16 N/A
11:55 am 11:55 Partly Cloudy 72 22 57 14 61 61 NNW 10 17 30.06 1018 10 16 N/A
12:15 pm 12:15 Partly Cloudy 73 23 59 15 61 61 NNW 10 17 30.06 1018 10 16 N/A
12:35 pm 12:35 Partly Cloudy 72 22 55 13 57 57 NW 8 13 30.06 1018 10 16 N/A
12:55 pm 12:55 Partly Cloudy 73 23 55 13 53 53 NNW 7 11 30.06 1018 10 16 N/A
1:15 pm 13:15 Partly Cloudy 73 23 55 13 53 53 NNW 9 15 30.06 1018 10 16 N/A
1:35 pm 13:35 Sunny 73 23 55 13 53 53 NW 12 19 30.06 1018 10 16 N/A
1:55 pm 13:55 Partly Cloudy 73 23 55 13 53 53 N 7 11 30.06 1018 10 16 N/A
2:15 pm 14:15 Mostly Cloudy 73 23 57 14 57 57 N 12 19 30.06 1018 10 16 N/A
2:35 pm 14:35 Partly Cloudy 73 23 55 13 53 53 NNW 10 17 30.06 1018 10 16 N/A
2:55 pm 14:55 Partly Cloudy 75 24 55 13 50 50 NW 7 11 30.06 1018 10 16 N/A
3:15 pm 15:15 Partly Cloudy 73 23 55 13 53 53 NNW 8 13 30.06 1018 10 16 N/A
3:35 pm 15:35 Sunny 73 23 54 12 50 50 NNW 10 17 30.03 1017 10 16 N/A
3:55 pm 15:55 Mostly Cloudy 73 23 57 14 57 57 NW 10 17 30.06 1018 10 16 N/A
4:15 pm 16:15 Partly Cloudy 73 23 57 14 57 57 NW 6 9 30.03 1017 10 16 N/A
4:35 pm 16:35 Sunny 73 23 57 14 57 57 NW 9 15 30.03 1017 10 16 N/A
4:55 pm 16:55 Sunny 73 23 55 13 53 53 N 7 11 30.03 1017 10 16 N/A
5:15 pm 17:15 Sunny 73 23 54 12 50 50 NNW 9 15 30.03 1017 10 16 N/A
5:35 pm 17:35 Sunny 73 23 54 12 50 50 NNW 9 15 30.06 1018 10 16 N/A
5:55 pm 17:55 Sunny 73 23 55 13 53 53 NNW 7 11 30.06 1018 10 16 N/A
6:15 pm 18:15 Sunny 72 22 55 13 57 57 NNW 6 9 30.06 1018 10 16 N/A
6:35 pm 18:35 Sunny 72 22 55 13 57 57 NW 5 7 30.06 1018 10 16 N/A
6:55 pm 18:55 Partly Cloudy 70 21 57 14 64 64 N 6 9 30.06 1018 10 16 N/A
7:15 pm 19:15 Partly Cloudy 68 20 59 15 73 73 N N/A 30.06 1018 10 16 N/A
7:35 pm 19:35 Clear 68 20 59 15 73 73 N N/A 30.09 1019 10 16 N/A
7:55 pm 19:55 Clear 64 18 59 15 83 83 N N/A 30.09 1019 10 16 N/A
8:15 pm 20:15 Clear 64 18 59 15 83 83 N N/A 30.09 1019 10 16 N/A
8:35 pm 20:35 Clear 64 18 59 15 83 83 N N/A 30.09 1019 10 16 N/A
8:55 pm 20:55 Clear 63 17 59 15 88 88 N N/A 30.12 1020 10 16 N/A
9:15 pm 21:15 Clear 63 17 59 15 88 88 N N/A 30.12 1020 10 16 N/A
9:35 pm 21:35 Clear 63 17 59 15 88 88 N N/A 30.12 1020 10 16 N/A
9:55 pm 21:55 Clear 61 16 59 15 94 94 N N/A 30.12 1020 10 16 N/A
10:15 pm 22:15 Clear 61 16 59 15 94 94 N N/A 30.12 1020 10 16 N/A
10:35 pm 22:35 Clear 59 15 59 15 100 100 N N/A 30.12 1020 10 16 N/A
10:55 pm 22:55 Clear 59 15 59 15 100 100 N N/A 30.12 1020 10 16 N/A
11:15 pm 23:15 Clear 59 15 59 15 100 100 N N/A 30.12 1020 10 16 N/A
11:35 pm 23:35 Clear 57 14 57 14 100 100 N N/A 30.12 1020 10 16 N/A
11:55 pm 23:55 Clear 57 14 57 14 100 100 N N/A 30.12 1020 10 16 N/A

Powered by AerisWeather